owner,sensor,date,latitude,longitude,vertical_datum,wind_speed,wind_to_direction,wind_speed_of_gust,qcFlag 
WAVCIS,ioos:station:WAVCIS:CSI06:1,2010-05-01T00:00:00Z,28.8667,-90.4833,10.0,10.66,150.0,,'11111222,11111222,99999999' 
WAVCIS,ioos:station:WAVCIS:CSI06:1,2010-05-01T01:00:00Z,28.8667,-90.4833,10.0,10.37,150.0,,'11111222,11111222,99999999' 
WAVCIS,ioos:station:WAVCIS:CSI06:1,2010-05-01T02:00:00Z,28.8667,-90.4833,10.0,10.27,148.0,,'11111222,11111222,99999999' 
WAVCIS,ioos:station:WAVCIS:CSI06:1,2010-05-01T03:00:00Z,28.8667,-90.4833,10.0,11.07,145.0,,'11111222,11111222,99999999' 
WAVCIS,ioos:station:WAVCIS:CSI06:1,2010-05-01T04:00:00Z,28.8667,-90.4833,10.0,11.37,145.0,,'11111222,11111222,99999999' 
WAVCIS,ioos:station:WAVCIS:CSI06:1,2010-05-01T05:00:00Z,28.8667,-90.4833,10.0,10.8,139.0,,'11111222,11111222,99999999' 
WAVCIS,ioos:station:WAVCIS:CSI06:1,2010-05-01T06:00:00Z,28.8667,-90.4833,10.0,10.94,136.0,,'11111222,11111222,99999999' 
WAVCIS,ioos:station:WAVCIS:CSI06:1,2010-05-01T07:00:00Z,28.8667,-90.4833,10.0,11.52,138.0,,'11111222,11111222,99999999' 
WAVCIS,ioos:station:WAVCIS:CSI06:1,2010-05-01T08:00:00Z,28.8667,-90.4833,10.0,11.86,139.0,,'11111222,11111222,99999999' 
WAVCIS,ioos:station:WAVCIS:CSI06:1,2010-05-01T09:00:00Z,28.8667,-90.4833,10.0,11.95,141.0,,'11111222,11111222,99999999' 
WAVCIS,ioos:station:WAVCIS:CSI06:1,2010-05-01T10:00:00Z,28.8667,-90.4833,10.0,11.28,141.0,,'11111222,11111222,99999999' 
WAVCIS,ioos:station:WAVCIS:CSI06:1,2010-05-01T11:00:00Z,28.8667,-90.4833,10.0,12.02,141.0,,'11111222,11111222,99999999' 
WAVCIS,ioos:station:WAVCIS:CSI06:1,2010-05-01T12:00:00Z,28.8667,-90.4833,10.0,12.6,141.0,,'11111222,11111222,99999999' 
WAVCIS,ioos:station:WAVCIS:CSI06:1,2010-05-01T13:00:00Z,28.8667,-90.4833,10.0,13.14,146.0,,'11111222,11111222,99999999' 
WAVCIS,ioos:station:WAVCIS:CSI06:1,2010-05-01T14:00:00Z,28.8667,-90.4833,10.0,13.59,152.0,,'11111222,11111222,99999999' 
WAVCIS,ioos:station:WAVCIS:CSI06:1,2010-05-01T15:00:00Z,28.8667,-90.4833,10.0,13.02,151.0,,'11111222,11111222,99999999' 
WAVCIS,ioos:station:WAVCIS:CSI06:1,2010-05-01T16:00:00Z,28.8667,-90.4833,10.0,12.22,151.0,,'11111222,11111222,99999999' 
WAVCIS,ioos:station:WAVCIS:CSI06:1,2010-05-01T17:00:00Z,28.8667,-90.4833,10.0,10.3,146.0,,'11111222,11111222,99999999' 
WAVCIS,ioos:station:WAVCIS:CSI06:1,2010-05-01T18:00:00Z,28.8667,-90.4833,10.0,10.9,145.0,,'11111222,11111222,99999999' 
WAVCIS,ioos:station:WAVCIS:CSI06:1,2010-05-01T19:00:00Z,28.8667,-90.4833,10.0,11.99,145.0,,'11111222,11111222,99999999' 
WAVCIS,ioos:station:WAVCIS:CSI06:1,2010-05-01T20:00:00Z,28.8667,-90.4833,10.0,11.78,146.0,,'11111222,11111222,99999999' 
WAVCIS,ioos:station:WAVCIS:CSI06:1,2010-05-01T21:00:00Z,28.8667,-90.4833,10.0,11.82,141.0,,'11111222,11111222,99999999' 
WAVCIS,ioos:station:WAVCIS:CSI06:1,2010-05-01T22:00:00Z,28.8667,-90.4833,10.0,12.51,143.0,,'11111222,11111222,99999999' 
WAVCIS,ioos:station:WAVCIS:CSI06:1,2010-05-01T23:00:00Z,28.8667,-90.4833,10.0,12.02,145.0,,'11111222,11111222,99999999' 
WAVCIS,ioos:station:WAVCIS:CSI06:1,2010-05-02T00:00:00Z,28.8667,-90.4833,10.0,12.64,145.0,,'11111222,11111222,99999999' 
WAVCIS,ioos:station:WAVCIS:CSI06:1,2010-05-02T01:00:00Z,28.8667,-90.4833,10.0,12.07,144.0,,'11111222,11111222,99999999' 
WAVCIS,ioos:station:WAVCIS:CSI06:1,2010-05-02T02:00:00Z,28.8667,-90.4833,10.0,12.62,150.0,,'11111222,11111222,99999999' 
WAVCIS,ioos:station:WAVCIS:CSI06:1,2010-05-02T03:00:00Z,28.8667,-90.4833,10.0,12.81,151.0,,'11111222,11111222,99999999' 
WAVCIS,ioos:station:WAVCIS:CSI06:1,2010-05-02T04:00:00Z,28.8667,-90.4833,10.0,13.79,148.0,,'11111222,11111222,99999999' 
WAVCIS,ioos:station:WAVCIS:CSI06:1,2010-05-02T05:00:00Z,28.8667,-90.4833,10.0,14.37,151.0,,'11111222,11111222,99999999' 
WAVCIS,ioos:station:WAVCIS:CSI06:1,2010-05-02T06:00:00Z,28.8667,-90.4833,10.0,14.57,149.0,,'11111222,11111222,99999999' 
WAVCIS,ioos:station:WAVCIS:CSI06:1,2010-05-02T07:00:00Z,28.8667,-90.4833,10.0,14.91,148.0,,'11111222,11111222,99999999' 
WAVCIS,ioos:station:WAVCIS:CSI06:1,2010-05-02T08:00:00Z,28.8667,-90.4833,10.0,14.37,149.0,,'11111222,11111222,99999999' 
WAVCIS,ioos:station:WAVCIS:CSI06:1,2010-05-02T09:00:00Z,28.8667,-90.4833,10.0,15.3,150.0,,'11111222,11111222,99999999' 
WAVCIS,ioos:station:WAVCIS:CSI06:1,2010-05-02T10:00:00Z,28.8667,-90.4833,10.0,14.94,153.0,,'11111222,11111222,99999999' 
WAVCIS,ioos:station:WAVCIS:CSI06:1,2010-05-02T11:00:00Z,28.8667,-90.4833,10.0,14.48,155.0,,'11111222,11111222,99999999' 
WAVCIS,ioos:station:WAVCIS:CSI06:1,2010-05-02T12:00:00Z,28.8667,-90.4833,10.0,14.39,159.0,,'11111222,11111222,99999999' 
WAVCIS,ioos:station:WAVCIS:CSI06:1,2010-05-02T13:00:00Z,28.8667,-90.4833,10.0,14.97,159.0,,'11111222,11111222,99999999' 
WAVCIS,ioos:station:WAVCIS:CSI06:1,2010-05-02T14:00:00Z,28.8667,-90.4833,10.0,13.92,167.0,,'11111222,11111222,99999999' 
WAVCIS,ioos:station:WAVCIS:CSI06:1,2010-05-02T15:00:00Z,28.8667,-90.4833,10.0,14.16,165.0,,'11111222,11111222,99999999' 
WAVCIS,ioos:station:WAVCIS:CSI06:1,2010-05-02T16:00:00Z,28.8667,-90.4833,10.0,12.32,174.0,,'11111222,11111222,99999999' 
WAVCIS,ioos:station:WAVCIS:CSI06:1,2010-05-02T17:00:00Z,28.8667,-90.4833,10.0,12.13,168.0,,'11111222,11111222,99999999' 
WAVCIS,ioos:station:WAVCIS:CSI06:1,2010-05-02T18:00:00Z,28.8667,-90.4833,10.0,11.38,173.0,,'11111222,11111222,99999999' 
WAVCIS,ioos:station:WAVCIS:CSI06:1,2010-05-02T19:00:00Z,28.8667,-90.4833,10.0,10.5,179.0,,'11111222,11111222,99999999' 
WAVCIS,ioos:station:WAVCIS:CSI06:1,2010-05-02T20:00:00Z,28.8667,-90.4833,10.0,10.35,166.0,,'11111222,11111222,99999999' 
WAVCIS,ioos:station:WAVCIS:CSI06:1,2010-05-02T21:00:00Z,28.8667,-90.4833,10.0,11.4,165.0,,'11111222,11111222,99999999' 
WAVCIS,ioos:station:WAVCIS:CSI06:1,2010-05-02T22:00:00Z,28.8667,-90.4833,10.0,10.22,176.0,,'11111222,11111222,99999999' 
WAVCIS,ioos:station:WAVCIS:CSI06:1,2010-05-02T23:00:00Z,28.8667,-90.4833,10.0,9.47,173.0,,'11111222,11111222,99999999' 
WAVCIS,ioos:station:WAVCIS:CSI06:1,2010-05-03T00:00:00Z,28.8667,-90.4833,10.0,10.38,170.0,,'11111222,11111222,99999999' 
WAVCIS,ioos:station:WAVCIS:CSI06:1,2010-05-03T01:00:00Z,28.8667,-90.4833,10.0,8.22,178.0,,'11111222,11111222,99999999' 
WAVCIS,ioos:station:WAVCIS:CSI06:1,2010-05-03T02:00:00Z,28.8667,-90.4833,10.0,6.178,191.0,,'11111222,11111222,99999999' 
WAVCIS,ioos:station:WAVCIS:CSI06:1,2010-05-03T03:00:00Z,28.8667,-90.4833,10.0,7.13,173.0,,'11111222,11111222,99999999' 
WAVCIS,ioos:station:WAVCIS:CSI06:1,2010-05-03T04:00:00Z,28.8667,-90.4833,10.0,7.83,178.0,,'11111222,11111222,99999999' 
WAVCIS,ioos:station:WAVCIS:CSI06:1,2010-05-03T05:00:00Z,28.8667,-90.4833,10.0,7.28,178.0,,'11111222,11111222,99999999' 
WAVCIS,ioos:station:WAVCIS:CSI06:1,2010-05-03T06:00:00Z,28.8667,-90.4833,10.0,8.42,176.0,,'11111222,11111222,99999999' 
WAVCIS,ioos:station:WAVCIS:CSI06:1,2010-05-03T07:00:00Z,28.8667,-90.4833,10.0,5.951,204.0,,'11111222,11111222,99999999' 
WAVCIS,ioos:station:WAVCIS:CSI06:1,2010-05-03T08:00:00Z,28.8667,-90.4833,10.0,4.539,209.0,,'11111222,11111222,99999999' 
WAVCIS,ioos:station:WAVCIS:CSI06:1,2010-05-03T09:00:00Z,28.8667,-90.4833,10.0,4.132,235.0,,'11111222,11111222,99999999' 
WAVCIS,ioos:station:WAVCIS:CSI06:1,2010-05-03T10:00:00Z,28.8667,-90.4833,10.0,3.713,227.0,,'11111222,11111222,99999999' 
WAVCIS,ioos:station:WAVCIS:CSI06:1,2010-05-03T11:00:00Z,28.8667,-90.4833,10.0,3.691,217.0,,'11111222,11111222,99999999' 
WAVCIS,ioos:station:WAVCIS:CSI06:1,2010-05-03T12:00:00Z,28.8667,-90.4833,10.0,3.87,217.0,,'11111222,11111222,99999999' 
WAVCIS,ioos:station:WAVCIS:CSI06:1,2010-05-03T13:00:00Z,28.8667,-90.4833,10.0,1.942,253.0,,'11111222,11111222,99999999' 
WAVCIS,ioos:station:WAVCIS:CSI06:1,2010-05-03T14:00:00Z,28.8667,-90.4833,10.0,1.52,270.0,,'11111222,11111222,99999999' 
WAVCIS,ioos:station:WAVCIS:CSI06:1,2010-05-03T15:00:00Z,28.8667,-90.4833,10.0,1.374,322.0,,'11111222,11111222,99999999' 
WAVCIS,ioos:station:WAVCIS:CSI06:1,2010-05-03T16:00:00Z,28.8667,-90.4833,10.0,3.317,23.0,,'11111222,11111222,99999999' 
WAVCIS,ioos:station:WAVCIS:CSI06:1,2010-05-03T17:00:00Z,28.8667,-90.4833,10.0,3.935,39.0,,'11111222,11111222,99999999' 
WAVCIS,ioos:station:WAVCIS:CSI06:1,2010-05-03T18:00:00Z,28.8667,-90.4833,10.0,5.209,38.0,,'11111222,11111222,99999999' 
WAVCIS,ioos:station:WAVCIS:CSI06:1,2010-05-03T19:00:00Z,28.8667,-90.4833,10.0,6.136,60.0,,'11111222,11111222,99999999' 
WAVCIS,ioos:station:WAVCIS:CSI06:1,2010-05-03T20:00:00Z,28.8667,-90.4833,10.0,7.24,58.0,,'11111222,11111222,99999999' 
WAVCIS,ioos:station:WAVCIS:CSI06:1,2010-05-03T21:00:00Z,28.8667,-90.4833,10.0,8.31,78.0,,'11111222,11111222,99999999' 
WAVCIS,ioos:station:WAVCIS:CSI06:1,2010-05-03T22:00:00Z,28.8667,-90.4833,10.0,8.16,80.0,,'11111222,11111222,99999999' 
WAVCIS,ioos:station:WAVCIS:CSI06:1,2010-05-03T23:00:00Z,28.8667,-90.4833,10.0,7.51,79.0,,'11111222,11111222,99999999' 
WAVCIS,ioos:station:WAVCIS:CSI06:1,2010-05-04T00:00:00Z,28.8667,-90.4833,10.0,8.8,80.0,,'11111222,11111222,99999999' 
WAVCIS,ioos:station:WAVCIS:CSI06:1,2010-05-04T01:00:00Z,28.8667,-90.4833,10.0,7.67,83.0,,'11111222,11111222,99999999' 
WAVCIS,ioos:station:WAVCIS:CSI06:1,2010-05-04T02:00:00Z,28.8667,-90.4833,10.0,6.477,88.0,,'11111222,11111222,99999999' 
WAVCIS,ioos:station:WAVCIS:CSI06:1,2010-05-04T03:00:00Z,28.8667,-90.4833,10.0,5.84,90.0,,'11111222,11111222,99999999' 
WAVCIS,ioos:station:WAVCIS:CSI06:1,2010-05-04T04:00:00Z,28.8667,-90.4833,10.0,3.411,88.0,,'11111222,11111222,99999999' 
WAVCIS,ioos:station:WAVCIS:CSI06:1,2010-05-04T05:00:00Z,28.8667,-90.4833,10.0,0.05,78.0,,'11111222,11111222,99999999' 
WAVCIS,ioos:station:WAVCIS:CSI06:1,2010-05-04T06:00:00Z,28.8667,-90.4833,10.0,0.714,303.0,,'11111222,11111222,99999999' 
WAVCIS,ioos:station:WAVCIS:CSI06:1,2010-05-04T07:00:00Z,28.8667,-90.4833,10.0,1.559,53.0,,'11111222,11111222,99999999' 
WAVCIS,ioos:station:WAVCIS:CSI06:1,2010-05-04T08:00:00Z,28.8667,-90.4833,10.0,3.354,19.0,,'11111222,11111222,99999999' 
WAVCIS,ioos:station:WAVCIS:CSI06:1,2010-05-04T09:00:00Z,28.8667,-90.4833,10.0,3.002,14.0,,'11111222,11111222,99999999' 
WAVCIS,ioos:station:WAVCIS:CSI06:1,2010-05-04T10:00:00Z,28.8667,-90.4833,10.0,4.362,16.0,,'11111222,11111222,99999999' 
WAVCIS,ioos:station:WAVCIS:CSI06:1,2010-05-04T11:00:00Z,28.8667,-90.4833,10.0,3.317,6.0,,'11111222,11111222,99999999' 
WAVCIS,ioos:station:WAVCIS:CSI06:1,2010-05-04T12:00:00Z,28.8667,-90.4833,10.0,6.315,5.0,,'11111222,11111222,99999999' 
WAVCIS,ioos:station:WAVCIS:CSI06:1,2010-05-04T13:00:00Z,28.8667,-90.4833,10.0,5.93,0.0,,'11111222,11111222,99999999' 
WAVCIS,ioos:station:WAVCIS:CSI06:1,2010-05-04T14:00:00Z,28.8667,-90.4833,10.0,6.689,26.0,,'11111222,11111222,99999999' 
WAVCIS,ioos:station:WAVCIS:CSI06:1,2010-05-04T15:00:00Z,28.8667,-90.4833,10.0,7.74,21.0,,'11111222,11111222,99999999' 
WAVCIS,ioos:station:WAVCIS:CSI06:1,2010-05-04T16:00:00Z,28.8667,-90.4833,10.0,5.987,18.0,,'11111222,11111222,99999999' 
WAVCIS,ioos:station:WAVCIS:CSI06:1,2010-05-04T17:00:00Z,28.8667,-90.4833,10.0,5.734,19.0,,'11111222,11111222,99999999' 
WAVCIS,ioos:station:WAVCIS:CSI06:1,2010-05-04T18:00:00Z,28.8667,-90.4833,10.0,4.702,13.0,,'11111222,11111222,99999999' 
WAVCIS,ioos:station:WAVCIS:CSI06:1,2010-05-04T19:00:00Z,28.8667,-90.4833,10.0,3.462,14.0,,'11111222,11111222,99999999' 
WAVCIS,ioos:station:WAVCIS:CSI06:1,2010-05-04T20:00:00Z,28.8667,-90.4833,10.0,2.314,14.0,,'11111222,11111222,99999999' 
WAVCIS,ioos:station:WAVCIS:CSI06:1,2010-05-04T21:00:00Z,28.8667,-90.4833,10.0,3.141,87.0,,'11111222,11111222,99999999' 
WAVCIS,ioos:station:WAVCIS:CSI06:1,2010-05-04T22:00:00Z,28.8667,-90.4833,10.0,3.615,90.0,,'11111222,11111222,99999999' 
WAVCIS,ioos:station:WAVCIS:CSI06:1,2010-05-04T23:00:00Z,28.8667,-90.4833,10.0,3.193,106.0,,'11111222,11111222,99999999' 
WAVCIS,ioos:station:WAVCIS:CSI06:1,2010-05-05T00:00:00Z,28.8667,-90.4833,10.0,2.515,109.0,,'11111222,11111222,99999999' 
WAVCIS,ioos:station:WAVCIS:CSI06:1,2010-05-05T01:00:00Z,28.8667,-90.4833,10.0,1.469,131.0,,'11111222,11111222,99999999' 
WAVCIS,ioos:station:WAVCIS:CSI06:1,2010-05-05T02:00:00Z,28.8667,-90.4833,10.0,2.768,240.0,,'11111222,11111222,99999999' 
WAVCIS,ioos:station:WAVCIS:CSI06:1,2010-05-05T03:00:00Z,28.8667,-90.4833,10.0,2.695,237.0,,'11111222,11111222,99999999' 
WAVCIS,ioos:station:WAVCIS:CSI06:1,2010-05-05T04:00:00Z,28.8667,-90.4833,10.0,3.133,243.0,,'11111222,11111222,99999999' 
WAVCIS,ioos:station:WAVCIS:CSI06:1,2010-05-05T05:00:00Z,28.8667,-90.4833,10.0,2.511,225.0,,'11111222,11111222,99999999' 
WAVCIS,ioos:station:WAVCIS:CSI06:1,2010-05-05T06:00:00Z,28.8667,-90.4833,10.0,2.224,207.0,,'11111222,11111222,99999999' 
WAVCIS,ioos:station:WAVCIS:CSI06:1,2010-05-05T07:00:00Z,28.8667,-90.4833,10.0,2.522,198.0,,'11111222,11111222,99999999' 
WAVCIS,ioos:station:WAVCIS:CSI06:1,2010-05-05T08:00:00Z,28.8667,-90.4833,10.0,2.22,227.0,,'11111222,11111222,99999999' 
WAVCIS,ioos:station:WAVCIS:CSI06:1,2010-05-05T09:00:00Z,28.8667,-90.4833,10.0,1.909,245.0,,'11111222,11111222,99999999' 
WAVCIS,ioos:station:WAVCIS:CSI06:1,2010-05-05T10:00:00Z,28.8667,-90.4833,10.0,2.246,263.0,,'11111222,11111222,99999999' 
WAVCIS,ioos:station:WAVCIS:CSI06:1,2010-05-05T11:00:00Z,28.8667,-90.4833,10.0,3.47,291.0,,'11111222,11111222,99999999' 
WAVCIS,ioos:station:WAVCIS:CSI06:1,2010-05-05T12:00:00Z,28.8667,-90.4833,10.0,4.651,302.0,,'11111222,11111222,99999999' 
WAVCIS,ioos:station:WAVCIS:CSI06:1,2010-05-05T13:00:00Z,28.8667,-90.4833,10.0,5.135,320.0,,'11111222,11111222,99999999' 
WAVCIS,ioos:station:WAVCIS:CSI06:1,2010-05-05T14:00:00Z,28.8667,-90.4833,10.0,3.873,317.0,,'11111222,11111222,99999999' 
WAVCIS,ioos:station:WAVCIS:CSI06:1,2010-05-05T15:00:00Z,28.8667,-90.4833,10.0,1.85,330.0,,'11111222,11111222,99999999' 
WAVCIS,ioos:station:WAVCIS:CSI06:1,2010-05-05T16:00:00Z,28.8667,-90.4833,10.0,1.495,320.0,,'11111222,11111222,99999999' 
WAVCIS,ioos:station:WAVCIS:CSI06:1,2010-05-05T17:00:00Z,28.8667,-90.4833,10.0,0.728,167.0,,'11111222,11111222,99999999' 
WAVCIS,ioos:station:WAVCIS:CSI06:1,2010-05-05T18:00:00Z,28.8667,-90.4833,10.0,0.085,94.0,,'11111222,11111222,99999999' 
WAVCIS,ioos:station:WAVCIS:CSI06:1,2010-05-05T19:00:00Z,28.8667,-90.4833,10.0,1.002,186.0,,'11111222,11111222,99999999' 
WAVCIS,ioos:station:WAVCIS:CSI06:1,2010-05-05T20:00:00Z,28.8667,-90.4833,10.0,1.987,142.0,,'11111222,11111222,99999999' 
WAVCIS,ioos:station:WAVCIS:CSI06:1,2010-05-05T21:00:00Z,28.8667,-90.4833,10.0,3.023,156.0,,'11111222,11111222,99999999' 
WAVCIS,ioos:station:WAVCIS:CSI06:1,2010-05-05T22:00:00Z,28.8667,-90.4833,10.0,2.493,176.0,,'11111222,11111222,99999999' 
WAVCIS,ioos:station:WAVCIS:CSI06:1,2010-05-05T23:00:00Z,28.8667,-90.4833,10.0,3.486,170.0,,'11111222,11111222,99999999' 
WAVCIS,ioos:station:WAVCIS:CSI06:1,2010-05-06T00:00:00Z,28.8667,-90.4833,10.0,3.858,169.0,,'11111222,11111222,99999999' 
WAVCIS,ioos:station:WAVCIS:CSI06:1,2010-05-06T01:00:00Z,28.8667,-90.4833,10.0,2.783,154.0,,'11111222,11111222,99999999' 
WAVCIS,ioos:station:WAVCIS:CSI06:1,2010-05-06T02:00:00Z,28.8667,-90.4833,10.0,2.894,172.0,,'11111222,11111222,99999999' 
WAVCIS,ioos:station:WAVCIS:CSI06:1,2010-05-06T03:00:00Z,28.8667,-90.4833,10.0,2.616,185.0,,'11111222,11111222,99999999' 
WAVCIS,ioos:station:WAVCIS:CSI06:1,2010-05-06T04:00:00Z,28.8667,-90.4833,10.0,1.8,182.0,,'11111222,11111222,99999999' 
WAVCIS,ioos:station:WAVCIS:CSI06:1,2010-05-06T05:00:00Z,28.8667,-90.4833,10.0,2.933,165.0,,'11111222,11111222,99999999' 
WAVCIS,ioos:station:WAVCIS:CSI06:1,2010-05-06T06:00:00Z,28.8667,-90.4833,10.0,3.457,183.0,,'11111222,11111222,99999999' 
WAVCIS,ioos:station:WAVCIS:CSI06:1,2010-05-06T07:00:00Z,28.8667,-90.4833,10.0,2.783,203.0,,'11111222,11111222,99999999' 
WAVCIS,ioos:station:WAVCIS:CSI06:1,2010-05-06T08:00:00Z,28.8667,-90.4833,10.0,2.485,205.0,,'11111222,11111222,99999999' 
WAVCIS,ioos:station:WAVCIS:CSI06:1,2010-05-06T09:00:00Z,28.8667,-90.4833,10.0,2.323,212.0,,'11111222,11111222,99999999' 
WAVCIS,ioos:station:WAVCIS:CSI06:1,2010-05-06T10:00:00Z,28.8667,-90.4833,10.0,2.526,198.0,,'11111222,11111222,99999999' 
WAVCIS,ioos:station:WAVCIS:CSI06:1,2010-05-06T11:00:00Z,28.8667,-90.4833,10.0,2.925,197.0,,'11111222,11111222,99999999' 
WAVCIS,ioos:station:WAVCIS:CSI06:1,2010-05-06T12:00:00Z,28.8667,-90.4833,10.0,1.935,187.0,,'11111222,11111222,99999999' 
WAVCIS,ioos:station:WAVCIS:CSI06:1,2010-05-06T13:00:00Z,28.8667,-90.4833,10.0,1.019,157.0,,'11111222,11111222,99999999' 
WAVCIS,ioos:station:WAVCIS:CSI06:1,2010-05-06T14:00:00Z,28.8667,-90.4833,10.0,1.273,170.0,,'11111222,11111222,99999999' 
WAVCIS,ioos:station:WAVCIS:CSI06:1,2010-05-06T15:00:00Z,28.8667,-90.4833,10.0,0.792,179.0,,'11111222,11111222,99999999' 
WAVCIS,ioos:station:WAVCIS:CSI06:1,2010-05-06T16:00:00Z,28.8667,-90.4833,10.0,1.226,134.0,,'11111222,11111222,99999999' 
WAVCIS,ioos:station:WAVCIS:CSI06:1,2010-05-06T17:00:00Z,28.8667,-90.4833,10.0,1.692,131.0,,'11111222,11111222,99999999' 
WAVCIS,ioos:station:WAVCIS:CSI06:1,2010-05-06T18:00:00Z,28.8667,-90.4833,10.0,2.477,144.0,,'11111222,11111222,99999999' 
WAVCIS,ioos:station:WAVCIS:CSI06:1,2010-05-06T19:00:00Z,28.8667,-90.4833,10.0,2.694,140.0,,'11111222,11111222,99999999' 
WAVCIS,ioos:station:WAVCIS:CSI06:1,2010-05-06T20:00:00Z,28.8667,-90.4833,10.0,2.125,144.0,,'11111222,11111222,99999999' 
WAVCIS,ioos:station:WAVCIS:CSI06:1,2010-05-06T21:00:00Z,28.8667,-90.4833,10.0,1.996,138.0,,'11111222,11111222,99999999' 
WAVCIS,ioos:station:WAVCIS:CSI06:1,2010-05-06T22:00:00Z,28.8667,-90.4833,10.0,1.746,143.0,,'11111222,11111222,99999999' 
WAVCIS,ioos:station:WAVCIS:CSI06:1,2010-05-06T23:00:00Z,28.8667,-90.4833,10.0,2.028,130.0,,'11111222,11111222,99999999' 
WAVCIS,ioos:station:WAVCIS:CSI06:1,2010-05-07T00:00:00Z,28.8667,-90.4833,10.0,2.543,145.0,,'11111222,11111222,99999999' 
WAVCIS,ioos:station:WAVCIS:CSI06:1,2010-05-07T01:00:00Z,28.8667,-90.4833,10.0,3.227,128.0,,'11111222,11111222,99999999' 
WAVCIS,ioos:station:WAVCIS:CSI06:1,2010-05-07T02:00:00Z,28.8667,-90.4833,10.0,4.526,133.0,,'11111222,11111222,99999999' 
WAVCIS,ioos:station:WAVCIS:CSI06:1,2010-05-07T03:00:00Z,28.8667,-90.4833,10.0,5.202,149.0,,'11111222,11111222,99999999' 
WAVCIS,ioos:station:WAVCIS:CSI06:1,2010-05-07T04:00:00Z,28.8667,-90.4833,10.0,5.634,152.0,,'11111222,11111222,99999999' 
WAVCIS,ioos:station:WAVCIS:CSI06:1,2010-05-07T05:00:00Z,28.8667,-90.4833,10.0,6.571,173.0,,'11111222,11111222,99999999' 
WAVCIS,ioos:station:WAVCIS:CSI06:1,2010-05-07T06:00:00Z,28.8667,-90.4833,10.0,8.08,183.0,,'11111222,11111222,99999999' 
WAVCIS,ioos:station:WAVCIS:CSI06:1,2010-05-07T07:00:00Z,28.8667,-90.4833,10.0,8.19,183.0,,'11111222,11111222,99999999' 
WAVCIS,ioos:station:WAVCIS:CSI06:1,2010-05-07T08:00:00Z,28.8667,-90.4833,10.0,8.24,187.0,,'11111222,11111222,99999999' 
WAVCIS,ioos:station:WAVCIS:CSI06:1,2010-05-07T09:00:00Z,28.8667,-90.4833,10.0,8.19,191.0,,'11111222,11111222,99999999' 
WAVCIS,ioos:station:WAVCIS:CSI06:1,2010-05-07T10:00:00Z,28.8667,-90.4833,10.0,7.18,193.0,,'11111222,11111222,99999999' 
WAVCIS,ioos:station:WAVCIS:CSI06:1,2010-05-07T11:00:00Z,28.8667,-90.4833,10.0,6.209,186.0,,'11111222,11111222,99999999' 
WAVCIS,ioos:station:WAVCIS:CSI06:1,2010-05-07T12:00:00Z,28.8667,-90.4833,10.0,6.597,200.0,,'11111222,11111222,99999999' 
WAVCIS,ioos:station:WAVCIS:CSI06:1,2010-05-07T13:00:00Z,28.8667,-90.4833,10.0,6.643,201.0,,'11111222,11111222,99999999' 
WAVCIS,ioos:station:WAVCIS:CSI06:1,2010-05-07T14:00:00Z,28.8667,-90.4833,10.0,6.87,200.0,,'11111222,11111222,99999999' 
WAVCIS,ioos:station:WAVCIS:CSI06:1,2010-05-07T15:00:00Z,28.8667,-90.4833,10.0,8.28,200.0,,'11111222,11111222,99999999' 
WAVCIS,ioos:station:WAVCIS:CSI06:1,2010-05-07T16:00:00Z,28.8667,-90.4833,10.0,6.926,213.0,,'11111222,11111222,99999999' 
WAVCIS,ioos:station:WAVCIS:CSI06:1,2010-05-07T17:00:00Z,28.8667,-90.4833,10.0,6.193,203.0,,'11111222,11111222,99999999' 
WAVCIS,ioos:station:WAVCIS:CSI06:1,2010-05-07T18:00:00Z,28.8667,-90.4833,10.0,5.351,200.0,,'11111222,11111222,99999999' 
WAVCIS,ioos:station:WAVCIS:CSI06:1,2010-05-07T19:00:00Z,28.8667,-90.4833,10.0,3.816,201.0,,'11111222,11111222,99999999' 
WAVCIS,ioos:station:WAVCIS:CSI06:1,2010-05-07T20:00:00Z,28.8667,-90.4833,10.0,4.137,191.0,,'11111222,11111222,99999999' 
WAVCIS,ioos:station:WAVCIS:CSI06:1,2010-05-07T21:00:00Z,28.8667,-90.4833,10.0,2.706,231.0,,'11111222,11111222,99999999' 
WAVCIS,ioos:station:WAVCIS:CSI06:1,2010-05-07T22:00:00Z,28.8667,-90.4833,10.0,2.386,185.0,,'11111222,11111222,99999999' 
WAVCIS,ioos:station:WAVCIS:CSI06:1,2010-05-07T23:00:00Z,28.8667,-90.4833,10.0,3.454,163.0,,'11111222,11111222,99999999' 
WAVCIS,ioos:station:WAVCIS:CSI06:1,2010-05-08T00:00:00Z,28.8667,-90.4833,10.0,1.77,235.0,,'11111222,11111222,99999999' 
WAVCIS,ioos:station:WAVCIS:CSI06:1,2010-05-08T01:00:00Z,28.8667,-90.4833,10.0,2.198,193.0,,'11111222,11111222,99999999' 
WAVCIS,ioos:station:WAVCIS:CSI06:1,2010-05-08T02:00:00Z,28.8667,-90.4833,10.0,4.781,189.0,,'11111222,11111222,99999999' 
WAVCIS,ioos:station:WAVCIS:CSI06:1,2010-05-08T03:00:00Z,28.8667,-90.4833,10.0,4.966,190.0,,'11111222,11111222,99999999' 
WAVCIS,ioos:station:WAVCIS:CSI06:1,2010-05-08T04:00:00Z,28.8667,-90.4833,10.0,6.276,191.0,,'11111222,11111222,99999999' 
WAVCIS,ioos:station:WAVCIS:CSI06:1,2010-05-08T05:00:00Z,28.8667,-90.4833,10.0,4.627,200.0,,'11111222,11111222,99999999' 
WAVCIS,ioos:station:WAVCIS:CSI06:1,2010-05-08T06:00:00Z,28.8667,-90.4833,10.0,3.853,209.0,,'11111222,11111222,99999999' 
WAVCIS,ioos:station:WAVCIS:CSI06:1,2010-05-08T07:00:00Z,28.8667,-90.4833,10.0,2.827,217.0,,'11111222,11111222,99999999' 
WAVCIS,ioos:station:WAVCIS:CSI06:1,2010-05-08T08:00:00Z,28.8667,-90.4833,10.0,5.1,224.0,,'11111222,11111222,99999999' 
WAVCIS,ioos:station:WAVCIS:CSI06:1,2010-05-08T09:00:00Z,28.8667,-90.4833,10.0,5.493,233.0,,'11111222,11111222,99999999' 
WAVCIS,ioos:station:WAVCIS:CSI06:1,2010-05-08T10:00:00Z,28.8667,-90.4833,10.0,5.259,239.0,,'11111222,11111222,99999999' 
WAVCIS,ioos:station:WAVCIS:CSI06:1,2010-05-08T11:00:00Z,28.8667,-90.4833,10.0,5.825,242.0,,'11111222,11111222,99999999' 
WAVCIS,ioos:station:WAVCIS:CSI06:1,2010-05-08T12:00:00Z,28.8667,-90.4833,10.0,5.403,236.0,,'11111222,11111222,99999999' 
WAVCIS,ioos:station:WAVCIS:CSI06:1,2010-05-08T13:00:00Z,28.8667,-90.4833,10.0,6.038,281.0,,'11111222,11111222,99999999' 
WAVCIS,ioos:station:WAVCIS:CSI06:1,2010-05-08T14:00:00Z,28.8667,-90.4833,10.0,4.927,273.0,,'11111222,11111222,99999999' 
WAVCIS,ioos:station:WAVCIS:CSI06:1,2010-05-08T15:00:00Z,28.8667,-90.4833,10.0,5.014,275.0,,'11111222,11111222,99999999' 
WAVCIS,ioos:station:WAVCIS:CSI06:1,2010-05-08T16:00:00Z,28.8667,-90.4833,10.0,4.916,260.0,,'11111222,11111222,99999999' 
WAVCIS,ioos:station:WAVCIS:CSI06:1,2010-05-08T17:00:00Z,28.8667,-90.4833,10.0,4.608,261.0,,'11111222,11111222,99999999' 
WAVCIS,ioos:station:WAVCIS:CSI06:1,2010-05-08T18:00:00Z,28.8667,-90.4833,10.0,4.132,255.0,,'11111222,11111222,99999999' 
WAVCIS,ioos:station:WAVCIS:CSI06:1,2010-05-08T19:00:00Z,28.8667,-90.4833,10.0,4.343,242.0,,'11111222,11111222,99999999' 
WAVCIS,ioos:station:WAVCIS:CSI06:1,2010-05-08T20:00:00Z,28.8667,-90.4833,10.0,4.293,237.0,,'11111222,11111222,99999999' 
WAVCIS,ioos:station:WAVCIS:CSI06:1,2010-05-08T21:00:00Z,28.8667,-90.4833,10.0,4.599,254.0,,'11111222,11111222,99999999' 
WAVCIS,ioos:station:WAVCIS:CSI06:1,2010-05-08T22:00:00Z,28.8667,-90.4833,10.0,2.262,36.0,,'11111222,11111222,99999999' 
WAVCIS,ioos:station:WAVCIS:CSI06:1,2010-05-08T23:00:00Z,28.8667,-90.4833,10.0,1.642,38.0,,'11111222,11111222,99999999' 
WAVCIS,ioos:station:WAVCIS:CSI06:1,2010-05-09T00:00:00Z,28.8667,-90.4833,10.0,8.04,28.0,,'11111222,11111222,99999999' 
WAVCIS,ioos:station:WAVCIS:CSI06:1,2010-05-09T01:00:00Z,28.8667,-90.4833,10.0,9.1,30.0,,'11111222,11111222,99999999' 
WAVCIS,ioos:station:WAVCIS:CSI06:1,2010-05-09T02:00:00Z,28.8667,-90.4833,10.0,9.06,28.0,,'11111222,11111222,99999999' 
WAVCIS,ioos:station:WAVCIS:CSI06:1,2010-05-09T03:00:00Z,28.8667,-90.4833,10.0,8.31,34.0,,'11111222,11111222,99999999' 
WAVCIS,ioos:station:WAVCIS:CSI06:1,2010-05-09T04:00:00Z,28.8667,-90.4833,10.0,8.59,37.0,,'11111222,11111222,99999999' 
WAVCIS,ioos:station:WAVCIS:CSI06:1,2010-05-09T05:00:00Z,28.8667,-90.4833,10.0,7.99,41.0,,'11111222,11111222,99999999' 